Location: Madrid
(40.4000°N, 3.6830°W)
Time: 22:49:51
(UTC+02:00)

ISS - Pass Details

Date: 01 August 2020
Orbit: 418 x 420 km, 51.6° (Epoch: 08 August)

Event Time Altitude Azimuth Distance (km) Brightness Sun altitude
Rises 21:56:25 0° 311° (NW) 2,369 2.1 -5.5°
Reaches altitude 10° 21:58:39 10° 321° (NW) 1,503 0.4 -5.9°
Maximum altitude 22:01:45 33° 28° (NNE) 723 -2.5 -6.4°
Drops below altitude 10° 22:04:51 10° 95° (E) 1,498 -1.5 -6.9°
Enters shadow 22:05:20 - 98° (E) 1,679 -1.3 -7.0°
